www.pogodaiklimat.ru

Погода и климат >> Архив погоды >> Финляндия >> Хельсинки


АРХИВ ПОГОДЫ в Хельсинки

Время (UTC), дата Ветер
(напр.,м/с)
 
Видим.   Явления Облачность Т
(С)
Тd
(С)
f
(%)
Тe
(С)
Тes
(С)
Комфортность P
(гПа)
Po
(гПа)
Тmin
(С)
Tmax
(С)
R
(мм)
R24
(мм)
S
(см)
07 18.05 ЮВ 3 50 км ясно +18.6 +4.6 40 +19 +26 тепло 1022.9 1016.5
08 18.05 ЮВ 3 50 км ясно +19.2 +3.3 35 +20 +28 тепло 1022.8 1016.5
09 18.05 В 4-6
{7}
50 км 1/0
[Ci fib]
+20.5 +3.7 33 +21 +29 комфорт 1022.4 1016.1
10 18.05 ЮВ 4 50 км ясно +21.2 +3.7 32 +21 +30 комфорт 1022.2 1015.9
11 18.05 ЮВ 4-7
{8}
45 км ясно +21.8 +4.4 32 +22 +31 комфорт 1021.8 1015.5
12 18.05 ЮВ 5-7
{9}
50 км 1/0
[Ci fib]
+21.2 +2.9 30 +21 +27 комфорт 1021.4 1015.1
13 18.05 ЮВ 5-8
{9}
45 км ясно +21.3 +2.3 28 +21 +26 комфорт 1021.1 1014.8
14 18.05 В 5 50 км ясно +21.7 +0.5 24 +21 +25 комфорт 1020.7 1014.4
15 18.05 ЮВ 5-8
{8}
50 км ясно +21.5 +0.5 25 +21 +24 комфорт 1020.1 1013.8
16 18.05 ЮВ 5-6
{8}
50 км ясно +21.1 +0.9 26 +21 +22 комфорт 1019.7 1013.3
17 18.05 В 4 50 км ясно +20.2 +1.3 28 +20 +21 тепло 1019.2 1012.8
18 18.05 ЮВ 3-4
{5}
50 км 3/0
[Ci fib]
+19.4 +1.4 30 +20 +20 тепло 1019.2 1012.8 +17.3 +22.2
19 18.05 В 2 50 км ясно +17.6 +2.8 37 +18 +18 тепло 1018.9 1012.5
20 18.05 ЮВ 1-2
{3}
50 км ясно +15.3 +3.8 46 +16 +16 тепло 1019.1 1012.6
21 18.05 В 2-3
{3}
50 км 3/0
[Ci fib]
+12.3 +4.0 57 +12 +12 тепло 1019.3 1012.8
22 18.05 В 2-3
{4}
50 км ясно +11.7 +4.1 60 +11 +11 тепло 1019.2 1012.7
23 18.05 В 2 50 км ясно +12.7 +3.3 53 +12 +12 тепло 1019.3 1012.8
00 19.05 В 3-4
{4}
50 км 3/0
[Ci fib]
+11.4 +3.5 58 +10 +10 тепло 1018.8 1012.3
01 19.05 В 3 50 км ясно +10.5 +3.9 64 +9 +9 тепло 1018.6 1012.1
02 19.05 В 4 50 км ясно +10.0 +4.4 68 +8 +8 тепло 1018.6 1012.0
03 19.05 В 3-5
{5}
50 км 9/0
[Cs]
+12.3 +5.8 64 +11 +11 тепло 1018.5 1012.0
04 19.05 В 3 50 км ясно +13.6 +6.6 63 +13 +14 тепло 1018.5 1012.0
05 19.05 В 2 50 км ясно +15.5 +7.3 58 +15 +19 тепло 1018.4 1012.0
06 19.05 ЮВ 4-5
{5}
50 км ясно +18.2 +7.1 48 +18 +22 тепло 1018.3 1011.9 +9.0 +19.4
07 19.05 ЮВ 4-5
{5}
50 км ясно +18.7 +7.1 47 +19 +25 тепло 1018.3 1012.0
08 19.05 ЮВ 4-6
{6}
50 км ясно +20.0 +5.9 40 +21 +28 комфорт 1018.3 1012.0
09 19.05 ЮВ 4-6
{6}
50 км 9/0
[Cs]
+21.9 +6.1 36 +23 +29 комфорт 1018.2 1011.9
10 19.05 ЮВ 4 50 км ясно +22.6 +5.8 34 +23 +32 комфорт 1018.1 1011.8
11 19.05 ЮВ 6 50 км ясно +22.6 +5.2 32 +23 +28 комфорт 1018.1 1011.8
12 19.05 ЮВ 5-7
{8}
50 км 9/0
[Ac lent Cs]
+23.1 +4.8 30 +23 +28 комфорт 1018.0 1011.8
13 19.05 ЮВ 6-8
{9}
50 км ясно +23.3 +5.1 31 +23 +27 комфорт 1017.9 1011.6
14 19.05 ЮВ 7 50 км ясно +22.9 +5.0 31 +23 +25 комфорт 1017.7 1011.5
15 19.05 ЮВ 7-9
{12}
50 км 9/0
[Ac cast Cs]
+22.6 +4.5 31 +23 +24 комфорт 1017.2 1011.0
16 19.05 ЮВ 7 50 км ясно +22.3 +4.1 30 +22 +23 комфорт 1017.2 1010.9
17 19.05 ЮВ 5-8
{9}
50 км ясно +21.1 +3.3 31 +21 +22 комфорт 1016.8 1010.5
18 19.05 В 4-6
{8}
50 км ясно +19.6 +4.3 36 +20 +20 тепло 1016.9 1010.6 +18.2 +23.8
19 19.05 В 4 50 км ясно +18.2 +4.7 41 +18 +18 тепло 1017.0 1010.6
20 19.05 В 3 50 км ясно +16.4 +5.5 48 +16 +16 тепло 1017.2 1010.8
21 19.05 В 3-4
{4}
50 км 9/0
[Ac cast Cs]
+15.9 +5.8 51 +16 +16 тепло 1017.3 1010.9
22 19.05 В 3-4
{5}
50 км 3/0
[]
+14.9 +6.5 57 +14 +14 тепло 1017.2 1010.7
23 19.05 В 4-5
{5}
50 км 5/0
[]
+14.8 +6.6 58 +14 +14 тепло 1017.0 1010.5
00 20.05 В 4-5
{5}
50 км 9/0
[Ac cast Cs]
+14.0 +7.9 67 +13 +13 тепло 1016.7 1010.2
01 20.05 В 4 50 км ясно +13.0 +8.8 76 +11 +11 тепло 1016.5 1010.0
02 20.05 В 3 50 км ясно +12.9 +9.2 78 +12 +12 тепло 1016.3 1009.8
03 20.05 В 4-5
{5}
50 км 9/0
[Cs]
+13.3 +9.3 77 +12 +12 тепло 1016.2 1009.7
04 20.05 В 3-4
{5}
50 км ясно +13.9 +9.4 74 +13 +14 тепло 1016.0 1009.6
05 20.05 В 3 50 км ясно +15.1 +9.2 68 +14 +17 тепло 1016.1 1009.6
06 20.05 В 3-5
{6}
50 км 9/0
[Ac lent Cs]
+16.8 +9.6 62 +17 +20 тепло 1016.1 1009.8 +12.7 +19.6
07 20.05 В 3 50 км ясно +18.9 +9.2 53 +20 +27 тепло 1016.2 1009.8
08 20.05 ЮВ 4-5
{5}
50 км ясно +20.8 +9.2 47 +22 +30 комфорт 1015.9 1009.6
09 20.05 ЮВ 4-6
{6}
50 км 9/0
[Ac cast Cs]
+22.1 +8.9 43 +23 +30 комфорт 1015.8 1009.5
10 20.05 ЮВ 4 40 км ясно +22.9 +9.0 41 +24 +33 комфорт 1015.6 1009.3
11 20.05 ЮВ 4-6
{8}
45 км ясно +24.0 +9.1 39 +25 +34 комфорт 1015.4 1009.2
12 20.05 ЮВ 5-7
{8}
40 км 9/0
[Ac cast Cs]
+23.8 +8.7 38 +24 +29 комфорт 1015.3 1009.0
13 20.05 ЮВ 5-6
{6}
50 км ясно +24.0 +9.1 39 +25 +30 комфорт 1015.1 1008.9
14 20.05 ЮВ 5-7
{7}
45 км ясно +23.9 +9.7 41 +25 +29 комфорт 1014.9 1008.6
15 20.05 Ю 3-5
{7}
40 км 10/0
[Ac As]
+22.7 +10.1 45 +25 +26 комфорт 1014.9 1008.7
16 20.05 В 3 45 км 9/9
[]
+22.1 +10.0 46 +24 +24 комфорт 1014.4 1008.2
17 20.05 В 1 50 км слаб. дождь 10/10
[]
+21.0 +11.0 53 +24 +24 комфорт 1014.7 1008.4
18 20.05 В 4-5
{5}
50 км 10/10
[]
+20.6 +10.5 52 +22 +22 комфорт 1014.1 1007.9 +16.8 +24.8
19 20.05 В 4 50 км 10/10
[]
+19.8 +11.0 57 +21 +21 комфорт 1014.0 1007.7
20 20.05 В 5 50 км 10/10
[]
+19.5 +10.9 58 +20 +20 тепло 1014.1 1007.8
21 20.05 В 2-4
{5}
40 км слаб. ливневой дождь 9/0 1500 м
[Ac cuf]
+17.2 +13.7 80 +18 +18 тепло 1014.2 1007.9 0.1
22 20.05 В 2 50 км слаб. морось 9/9
[]
+17.5 +12.9 74 +18 +18 тепло 1014.0 1007.7
23 20.05 В 2-3
{4}
50 км 10/10
[]
+16.7 +13.5 81 +17 +17 тепло 1013.8 1007.4
00 21.05 В 2-3
{3}
40 км слаб. ливневой дождь 9/0 2000 м
[Ac cuf]
+16.1 +14.0 87 +16 +16 тепло 1013.9 1007.5
01 21.05 В 4 29 км слаб. дождь 10/10
[]
+15.5 +14.1 91 +14 +14 тепло 1013.5 1007.1
02 21.05 С 4 50 км в посл. час дождь 10/10
[]
+15.1 +13.5 90 +14 +14 тепло 1013.0 1006.6
03 21.05 ЮВ 1-2
{4}
40 км {ливн. осадки} 9/9 2000 м
[Ac cast]
+15.4 +13.7 90 +16 +16 тепло 1013.2 1006.8
04 21.05 СВ 2 50 км 6/6
[]
+15.6 +13.8 89 +15 +16 тепло 1013.4 1007.0
05 21.05 С 2-2
{3}
50 км 1/0
[]
+16.1 +14.0 87 +16 +19 тепло 1013.4 1007.0
06 21.05 ЮВ 1-2
{2}
40 км {ливн. осадки} 8/0
[Ac cast]
+18.3 +13.5 74 +20 +23 тепло 1013.5 1007.1 +15.1 +20.6 0.5
07 21.05 ЮВ 2-3
{5}
45 км 3/3
[]
+19.5 +12.6 64 +21 +26 комфорт 1013.4 1007.0
08 21.05 В 1 40 км ясно +21.3 +13.3 60 +24 +36 комфорт 1013.2 1006.9
09 21.05 ЮВ 2-4
{4}
40 км 5/5
[Ac cast]
+22.7 +13.1 55 +26 +32 жарко 1013.1 1006.9
10 21.05 ЮВ 1 40 км ясно +23.9 +12.9 50 +26 +41 жарко 1013.0 1006.8
11 21.05 Ю 3 35 км 6/6
[]
+24.2 +10.7 43 +25 +30 комфорт 1012.8 1006.6
12 21.05 ЮВ 3-6
{6}
40 км 3/0 1500 м
[Ac cast]
+25.7 +9.4 36 +26 +34 жарко 1012.3 1006.2
13 21.05 Ю 4 45 км ясно +25.5 +8.7 34 +26 +33 жарко 1011.9 1005.8
14 21.05 ЮВ 4 40 км ясно +26.0 +8.5 33 +26 +31 жарко 1011.8 1005.7
15 21.05 ЮВ 4-5
{7}
40 км 6/0 1500 м
[Ac As Ci ing]
+25.7 +9.0 35 +26 +29 жарко 1011.8 1005.6
16 21.05 СВ 3 45 км 8/8
[]
+22.2 +12.8 55 +25 +25 комфорт 1012.0 1005.8
17 21.05 ЮВ 2 50 км 9/9
[]
+22.0 +12.8 56 +25 +25 комфорт 1011.6 1005.3
18 21.05 В 2-3
{4}
40 км 9/0
[Ac As Ci sp]
+21.1 +11.3 54 +23 +23 комфорт 1011.5 1005.3 +18.2 +26.9
19 21.05 В 1-2
{3}
45 км 9/0
[]
+20.0 +12.1 60 +23 +23 комфорт 1012.0 1005.7
20 21.05 С 3 45 км 9/9
[]
+18.8 +13.9 73 +20 +20 тепло 1012.4 1006.0
21 21.05 СВ 2-3
{5}
40 км 9/9
[Ac As]
+18.1 +13.3 74 +19 +19 тепло 1011.6 1005.3
22 21.05 В 2 50 км 10/10
[]
+18.0 +13.5 75 +19 +19 тепло 1011.6 1005.3
23 21.05 СВ 1 50 км 9/9
[]
+17.1 +13.5 79 +18 +18 тепло 1011.7 1005.3
00 22.05 С 2-3
{3}
50 км 8/0
[Ac As]
+16.9 +13.1 78 +17 +17 тепло 1011.2 1004.8
01 22.05 СВ 2 50 км 3/3
[]
+15.9 +12.8 82 +16 +16 тепло 1011.1 1004.7
02 22.05 В 2-3
{4}
50 км ясно +15.0 +12.7 86 +15 +15 тепло 1011.0 1004.6
03 22.05 В 2-3
{3}
40 км 1/0 2000 м
[Ac trans]
+15.0 +12.8 87 +15 +15 тепло 1010.8 1004.4
04 22.05 В 2 40 км ясно +16.3 +12.7 79 +16 +18 тепло 1010.8 1004.4
05 22.05 В 1-2
{3}
45 км ясно +18.0 +12.5 70 +19 +23 тепло 1010.7 1004.4
06 22.05 ЮВ 2-3
{3}
40 км ясно +20.0 +12.7 63 +22 +28 комфорт 1010.4 1004.1 +14.4 +21.1
07 22.05 ЮВ 2 45 км ясно +21.5 +12.7 57 +24 +32 комфорт 1010.2 1004.0
08 22.05 Ю 4 40 км ясно +22.2 +12.3 53 +25 +32 комфорт 1010.2 1004.0
09 22.05 ЮВ 4-7
{7}
40 км 1/0 1000 м
[Ci fib]
+23.1 +12.0 50 +26 +34 жарко 1010.1 1003.9
10 22.05 Ю 4-6
{6}
35 км ясно +23.5 +12.5 50 +25 +34 комфорт 1009.9 1003.7
11 22.05 Ю 3 28 км ясно +23.9 +12.0 47 +26 +37 жарко 1009.4 1003.2
12 22.05 ЮВ 4-6
{6}
40 км 3/0 1000 м
[Ac As Ci fib]
+23.9 +11.9 47 +26 +33 жарко 1008.6 1002.4
13 22.05 Ю 5-7
{7}
35 км 3/3
[]
+23.6 +11.6 47 +25 +29 комфорт 1008.5 1002.3
14 22.05 Ю 4 50 км 3/3
[]
+22.1 +11.6 51 +24 +28 комфорт 1008.1 1001.9
15 22.05 СЗ 1-3
{10}
20 км гроза, ливневой дождь 9/0 1000 м
[Ac As]
+18.1 +16.0 88 +19 +23 тепло 1008.4 1002.1 2
16 22.05 ЮВ 2 45 км в посл. час дождь 3/3
[]
+20.6 +14.9 70 +24 +26 комфорт 1007.4 1001.2
17 22.05 ЮЗ 2 50 км 1/1
[]
+20.5 +15.1 71 +24 +25 комфорт 1007.0 1000.8
18 22.05 Ю 3-5
{5}
40 км {гроза, ливн. осадки} 6/0 2000 м
[Ac cuf Ci fib]
+19.0 +13.2 69 +20 +20 тепло 1006.9 1000.6 +17.6 +24.7 2
19 22.05 Ю 2 45 км 9/3 1500 м
[]
+18.5 +12.5 68 +20 +20 тепло 1006.9 1000.6
20 22.05 СВ 3-4
{5}
50 км 3/0 2000 м
[]
+17.4 +12.8 74 +17 +17 тепло 1007.1 1000.8
21 22.05 В 2-3
{4}
40 км в посл. час гроза 4/0 1500 м
[Ac cuf Ci fib]
+16.1 +13.0 82 +16 +16 тепло 1007.0 1000.7
22 22.05 СВ 2 40 км ясно +14.8 +12.5 86 +14 +14 тепло 1007.4 1001.0
23 22.05 СВ 4 35 км ясно +15.0 +14.0 94 +14 +14 тепло 1007.7 1001.3
00 23.05 СВ 5-7
{7}
40 км {гроза} 3/0 200 м
[Ac As Ci fib]
+14.7 +14.3 97 +13 +13 тепло 1007.9 1001.5
01 23.05 СВ 4 30 км 6/6 200 м
[]
+14.9 +14.4 97 +14 +14 тепло 1007.9 1001.6
02 23.05 СВ 4 35 км 6/6 200 м
[]
+15.2 +14.4 95 +14 +14 тепло 1008.3 1002.0
03 23.05 СВ 6-8
{8}
40 км 9/9 200 м
[]
+15.2 +13.9 92 +14 +14 тепло 1008.5 1002.2
04 23.05 СВ 6 40 км 10/10 300 м
[]
+15.1 +13.4 90 +13 +13 тепло 1008.7 1002.4
05 23.05 СВ 6 50 км 10/10 300 м
[]
+15.2 +12.9 86 +14 +14 тепло 1009.2 1002.8
06 23.05 СВ 7-9
{11}
50 км 10/10 300 м
[Sc]
+13.8 +11.4 85 +11 +11 по сезону 1010.1 1003.7 +13.7 +19.0
07 23.05 СВ 7 50 км 10/10 300 м
[]
+14.0 +11.1 83 +12 +12 тепло 1010.7 1004.2
08 23.05 СВ 5 40 км 10/10 300 м
[]
+14.2 +10.8 80 +13 +13 тепло 1011.1 1004.7
09 23.05 ЮВ 5-8
{8}
50 км 10/0 300 м
[]
+13.6 +11.2 85 +12 +15 по сезону 1011.7 1005.3
10 23.05 ЮВ 5 40 км 10/10 300 м
[]
+14.6 +10.7 77 +13 +13 по сезону 1012.0 1005.6
11 23.05 ЮВ 4 28 км 10/10 600 м
[]
+15.4 +9.7 69 +14 +14 по сезону 1012.1 1005.7
12 23.05 ЮВ 6-8
{8}
50 км 3/0 600 м
[]
+15.1 +8.7 66 +14 +18 по сезону 1012.2 1005.8
13 23.05 ЮВ 6-9
{9}
35 км 8/0 600 м
[]
+13.8 +8.3 69 +12 +13 по сезону 1012.3 1005.8
14 23.05 ЮВ 6 45 км ясно +14.4 +8.1 66 +13 +16 по сезону 1012.1 1005.7
15 23.05 ЮВ 6-8
{8}
50 км 1/0 600 м
[]
+13.4 +7.6 68 +11 +13 по сезону 1012.3 1005.9
16 23.05 ЮВ 6-8
{9}
50 км ясно +12.7 +6.6 66 +10 +11 по сезону 1012.3 1005.9
17 23.05 ЮВ 5-7
{8}
50 км ясно +11.7 +6.1 68 +9 +10 по сезону 1012.6 1006.1
18 23.05 В 5-8
{9}
50 км 5/0
[Ac As]
+10.7 +4.7 66 +8 +8 прохладно 1013.2 1006.7 +10.6 +16.0 0.0
19 23.05 В 4 50 км ясно +9.9 +4.5 69 +7 +7 тепло 1013.2 1006.7
20 23.05 В 3 50 км 8/8
[]
+9.4 +4.4 71 +7 +7 по сезону 1013.3 1006.8
21 23.05 В 3-4
{5}
50 км 9/9 2000 м
[Ac As]
+9.1 +4.0 70 +7 +7 по сезону 1013.6 1007.0
22 23.05 В 4 50 км 10/10 2000 м
[]
+9.2 +3.2 66 +7 +7 тепло 1013.2 1006.7
23 23.05 В 4-8
{8}
50 км 10/0 2000 м
[]
+9.3 +2.6 63 +7 +7 тепло 1013.1 1006.5
00 24.05 В 5-7
{7}
50 км 9/0 2000 м
[Ac As]
+9.2 +2.5 63 +6 +6 по сезону 1012.6 1006.0
01 24.05 В 5 50 км 10/10 1500 м
[]
+9.1 +2.5 63 +6 +6 тепло 1012.3 1005.8
02 24.05 ЮВ 6-7
{8}
50 км слаб. ливневой дождь 10/0 1500 м
[]
+9.1 +3.9 70 +6 +6 по сезону 1012.4 1005.9
03 24.05 В 5-7
{7}
40 км слаб. дождь 9/9 300 м
[]
+8.3 +5.3 81 +5 +5 прохладно 1012.1 1005.5
04 24.05 В 4 50 км в посл. час морось 10/10 1500 м
[]
+8.4 +5.6 83 +5 +5 по сезону 1011.9 1005.4
05 24.05 В 5-8
{8}
50 км 10/10 600 м
[]
+9.1 +5.7 79 +6 +6 прохладно 1011.7 1005.2
06 24.05 В 5-8
{8}
15 км осадки на расстоянии 10/10 600 м
[Sc]
+8.8 +6.1 83 +5 +5 холодно 1012.0 1005.5 +8.2 +10.8 0.0
07 24.05 В 5 19 км слаб. ливневой дождь 10/10 1000 м
[]
+7.9 +6.7 92 +4 +4 холодно 1011.9 1005.3
08 24.05 В 4-8
{8}
50 км 10/10 1000 м
[]
+8.4 +7.1 92 +5 +5 холодно 1011.4 1004.9
09 24.05 В 6-9
{9}
30 км {ливн. осадки} 10/10 300 м
[]
+9.4 +7.2 86 +6 +6 холодно 1011.3 1004.7
10 24.05 В 6 50 км 10/10 300 м
[]
+9.5 +6.9 84 +6 +6 холодно 1011.1 1004.5
11 24.05 ЮВ 5 50 км 10/10 300 м
[]
+9.8 +7.3 84 +7 +7 холодно 1010.9 1004.4
12 24.05 В 5-7
{10}
40 км {ливн. осадки} 10/0 300 м
[]
+9.9 +6.5 79 +7 +10 очень
холодно
1010.8 1004.3
13 24.05 В 5-7
{8}
50 км 10/0 300 м
[]
+10.2 +6.6 78 +7 +7 прохладно 1010.6 1004.1
14 24.05 В 5-7
{7}
50 км 10/0 300 м
[]
+10.1 +6.8 80 +7 +7 холодно 1010.4 1003.9
15 24.05 В 4-6
{8}
40 км 10/0 300 м
[]
+10.3 +6.6 78 +8 +9 холодно 1010.0 1003.5
16 24.05 ЮВ 4 50 км 10/10 300 м
[]
+10.2 +6.9 80 +8 +8 по сезону 1009.7 1003.2
17 24.05 В 4 50 км 10/10 300 м
[]
+10.1 +7.3 83 +7 +7 прохладно 1009.2 1002.7
18 24.05 В 3-4
{4}
50 км 10/10 300 м
[]
+10.0 +8.0 87 +8 +8 прохладно 1009.1 1002.6 +7.8 +10.5 2
19 24.05 В 3 29 км 10/10 200 м
[]
+9.7 +8.4 92 +7 +7 тепло 1008.9 1002.4
20 24.05 В 2-3
{4}
16 км 10/0 100 м
[]
+9.6 +9.0 96 +8 +8 по сезону 1008.6 1002.1
21 24.05 ЮВ 2-3
{4}
6000 м слаб. морось 10/0 50 м
[]
+9.5 +9.5 100 +8 +8 по сезону 1008.1 1001.6
22 24.05 ЮВ 4-5
{5}
25 км 10/0 100 м
[]
+9.5 +9.4 99 +6 +6 тепло 1007.6 1001.1
23 24.05 В 4 5000 м дымка 10/10 50 м
[]
+8.8 +8.8 100 +5 +5 по сезону 1007.1 1000.6
00 25.05 ЮВ 4-6
{6}
1500 м слаб. морось 10/0 <50 м
[]
+8.7 +8.7 100 +5 +5 по сезону 1006.3 999.8
01 25.05 ЮВ 3 2900 м дымка 10/10 50 м
[]
+8.5 +8.5 100 +6 +6 по сезону 1005.6 999.1
02 25.05 ЮВ 4 1600 м дымка ?/? +8.3 +8.3 100 +5 +5 по сезону 1005.0 998.5
03 25.05 ЮВ 3-5
{6}
2000 м дымка 10/0 <50 м
[]
+8.4 +8.4 100 +6 +6 по сезону 1004.1 997.7
04 25.05 ЮВ 5-7
{7}
8000 м слаб. ливневой дождь 10/0 50 м
[]
+8.9 +8.9 100 +5 +5 по сезону 1003.7 997.2 0.1
05 25.05 ЮВ 5 6000 м ливневой дождь 10/10 100 м
[]
+8.9 +8.9 100 +5 +5 прохладно 1003.0 996.6
06 25.05 Ю 5-8
{8}
10 км слаб. ливневой дождь 10/0 100 м
[]
+9.6 +9.6 100 +6 +6 прохладно 1002.5 996.0 +8.2 +10.0 2

 

Местоположение метеостанции Хельсинки (Финляндия): широта 60.33 долгота 24.96 высота над уровнем моря 51 м.

В архиве по умолчанию представлена погода в Хельсинки за последнюю неделю. Архивные данные за месяц целиком и за предыдущие месяцы, начиная с января 2011 года, Вы можете получить, выбрав интересующий диапазон дат из раскрывающегося списка и нажав кнопку "Ввод!".


*Определитесь, кто Вы:
робот инопланетянин человек

Внимание! Время в таблицах - всемирное. Для получения местного времени необходимо прибавить поправку, которая равна 1 ч.

Смотрите также архив погоды в соседних городах и на ближайших метеорологических станциях:

Погода в Хельсинки университете (Финляндия) (14 км)
Погода в Хельсинки Кайсаниеми (Финляндия) (17 км)
Погода в Эспо Тапиола (Финляндия) (19 км)
Погода в Эспо Нууксио (Финляндия) (22 км)
Погода на Острове Хармая (Финляндия) (26 км)
Погода в Нурмиярви (Финляндия) (26 км)
Погода в Хювинкяа (Финляндия) (31 км)
Погода в Вихти (Финляндия) (32 км)
Погода в Килпилахти (Финляндия) (33 км)
Погода на Острове Синго (Финляндия) (36 км)

Пояснения к столбцам:

Ветер - указаны скорость ветра в м/с - средняя за 10 мин, порывы в срок и между сроками (в фигурных скобках) и направление, откуда дует ветер: С - северный, СВ - северо-восточный, В - восточный, ЮВ - юго-восточный, Ю - южный, ЮЗ - юго-западный, З - западный, СЗ - северо-западный.
Видимость - горизонтальная дальность видимости в метрах или километрах. При видимости от 1 до 10 км при отсутствии осадков обычно наблюдается дымка, при ухудшении видимости до 1 км и менее - туман. В сухую погоду видимость может ухудшаться дымом, пылью или мглою.
Явления - указаны атмосферные явления, наблюдавшиеся в срок или в последний час перед сроком; фигурными скобками обозначены явления, наблюдавшиеся между сроками (за 1-3 часа до срока); квадратными скобками обозначены град или гололедные отложения с указанием их диаметра в мм.
Облачность - указаны через наклонную черту общая и нижняя облачность в баллах и высота нижней границы облаков в метрах; квадратными скобками обозначены формы облаков: Ci - перистые, Cs - перисто-слоистые, Cc - перисто-кучевые, Ac - высококучевые, As - высокослоистые, Sc - слоисто-кучевые, Ns - слоисто-дождевые, Cu - кучевые, Cb - кучево-дождевые. Подробнее классификацию облаков см. в Атласе облаков (PDF).
T - Температура воздуха - температура, измеренная на высоте 2 м над землей.
Td - Температура точки росы - температура, при понижении до которой содержащийся в воздухе водяной пар достигнет насыщения.
f - Относительная влажность воздуха - влажноcть воздуха, измеренная на высоте 2 м над землей.
Te - Эффективная температура - температура, которую ощущает одетый по сезону человек в тени. Характеристика душности погоды. При расчете учитывается влияние влажности воздуха и скорости ветра на теплоощущения человека.
Tes - Эффективная температура на солнце - температура, которую ощущает человек, с поправкой на солнечный нагрев. Характеристика знойности погоды. Зависит от высоты солнца над горизонтом, облачности и скорости ветра. Ночью, в пасмурную погоду, а также при ветре 12 м/с и более поправка равна нулю.
P - Атмосферное давление - приведенное к уровню моря атмосферное давление.
Po - Атмосферное давление - измеренное на уровне метеостанции атмосферное давление.
Tmin - Минимальная температура - минимум температуры воздуха на высоте 2 м над землей.
Tmax - Максимальная температура - максимум температуры воздуха на высоте 2 м над землей.
R - Количество осадков - Количество выпавших осадков за период времени, мм. При наведении курсора мыши на число - период времени, за который выпало указанное количество осадков.
R24 - Количество осадков - Количество выпавших осадков за 24 часа, мм.
S - Снежный покров - Высота снежного покрова, см. При наведении курсора мыши на число - состояние снежного покрова и степень покрытия местности в баллах.